TimeCST,TemperatureF,Dew PointF,Humidity,Sea Level PressureIn,VisibilityMPH,Wind Direction,Wind SpeedMPH,Gust SpeedMPH,PrecipitationIn,Events,Conditions,WindDirDegrees,DateUTC
12:02 AM,15.8,12.2,86,30.01,7.0,North,9.2,-,N/A,,Mostly Cloudy,360,2012-12-23 06:02:00
12:09 AM,15.8,12.2,86,30.01,7.0,NNE,4.6,-,N/A,,Mostly Cloudy,20,2012-12-23 06:09:00
12:53 AM,15.1,12.0,88,30.09,7.0,North,8.1,-,N/A,,Overcast,10,2012-12-23 06:53:00
1:53 AM,12.9,10.0,88,30.11,6.0,NW,9.2,-,N/A,,Mostly Cloudy,320,2012-12-23 07:53:00
2:53 AM,14.0,12.0,92,30.10,5.0,North,8.1,-,N/A,,Overcast,350,2012-12-23 08:53:00
3:53 AM,12.9,10.9,92,30.11,6.0,NNW,5.8,-,N/A,,Overcast,340,2012-12-23 09:53:00
4:53 AM,12.0,10.0,92,30.09,5.0,North,6.9,-,N/A,,Overcast,360,2012-12-23 10:53:00
5:53 AM,12.0,10.0,92,30.09,4.0,North,6.9,-,N/A,,Overcast,350,2012-12-23 11:53:00
6:03 AM,12.2,10.4,92,29.99,4.0,North,8.1,-,N/A,,Overcast,350,2012-12-23 12:03:00
6:53 AM,10.9,9.0,92,30.09,5.0,North,3.5,-,N/A,,Overcast,10,2012-12-23 12:53:00
7:53 AM,10.0,8.1,92,30.09,4.0,NNE,3.5,-,N/A,,Overcast,30,2012-12-23 13:53:00
8:26 AM,10.4,8.6,92,29.97,2.5,NNW,3.5,-,N/A,,Overcast,340,2012-12-23 14:26:00
8:43 AM,10.4,8.6,92,29.98,3.0,North,4.6,-,N/A,,Overcast,10,2012-12-23 14:43:00
8:53 AM,10.0,8.1,92,30.09,2.5,North,5.8,-,N/A,,Overcast,350,2012-12-23 14:53:00
9:06 AM,10.4,8.6,92,29.98,1.5,NW,3.5,-,0.00,Snow,Light Snow,320,2012-12-23 15:06:00
9:30 AM,10.4,8.6,92,29.99,1.8,NW,5.8,-,0.00,Snow,Light Snow,310,2012-12-23 15:30:00
9:45 AM,10.4,8.6,92,29.99,2.5,NNW,4.6,-,0.00,Snow,Light Snow,330,2012-12-23 15:45:00
9:53 AM,10.9,8.1,88,30.10,2.5,NW,3.5,-,0.00,Snow,Light Snow,310,2012-12-23 15:53:00
10:11 AM,10.4,8.6,92,29.99,4.0,NW,3.5,-,0.00,,Mostly Cloudy,320,2012-12-23 16:11:00
10:37 AM,12.2,10.4,92,29.99,4.0,Calm,Calm,-,0.00,,Scattered Clouds,0,2012-12-23 16:37:00
10:53 AM,12.9,10.0,88,30.10,6.0,Calm,Calm,-,0.00,,Clear,0,2012-12-23 16:53:00
11:53 AM,16.0,10.9,81,30.08,7.0,Calm,Calm,-,N/A,,Clear,0,2012-12-23 17:53:00
12:53 PM,19.0,12.9,77,30.05,8.0,South,4.6,-,N/A,,Clear,190,2012-12-23 18:53:00
1:53 PM,21.0,15.1,78,30.02,8.0,South,3.5,-,N/A,,Clear,180,2012-12-23 19:53:00
2:53 PM,23.0,16.0,74,30.01,8.0,South,5.8,-,N/A,,Clear,180,2012-12-23 20:53:00
3:53 PM,24.1,17.1,75,30.02,8.0,West,3.5,-,N/A,,Clear,280,2012-12-23 21:53:00
4:53 PM,23.0,17.1,78,30.04,7.0,Calm,Calm,-,N/A,,Clear,0,2012-12-23 22:53:00
5:53 PM,19.9,15.1,81,30.04,9.0,NW,4.6,-,N/A,,Clear,320,2012-12-23 23:53:00
6:53 PM,21.9,17.1,82,30.08,10.0,NNW,12.7,-,N/A,,Clear,330,2012-12-24 00:53:00
7:53 PM,18.0,12.9,81,30.11,9.0,North,12.7,-,N/A,,Clear,350,2012-12-24 01:53:00
8:53 PM,15.1,8.1,74,30.13,10.0,North,8.1,-,N/A,,Clear,350,2012-12-24 02:53:00
9:53 PM,10.9,6.1,81,30.16,10.0,North,5.8,-,N/A,,Clear,350,2012-12-24 03:53:00
10:53 PM,10.0,5.0,80,30.16,10.0,NW,6.9,-,N/A,,Clear,320,2012-12-24 04:53:00
11:53 PM,9.0,3.9,80,30.15,10.0,NW,5.8,-,N/A,,Clear,310,2012-12-24 05:53:00